#timestamp,LO_Frequency,Hit,StdDev 
1608091215.1,286047001.8,N
1608091235.8,286047007.2,N
1608091255.7,286047009.5,N
1608091275.5,286047005.0,N
1608091295.4,286047006.5,N
1608091315.2,286047004.9,N
1608091335.0,286047007.9,N
1608091335.9,286047007.9,N
1608091355.8,286047007.7,N
1608091375.6,286047007.6,N
1608091395.4,286047006.2,N
1608091415.3,286047006.3,N
1608091435.1,286047003.0,N
1608091485.9,286047005.3,E
1608091495.8,286046999.8,N
1608091515.6,286046996.8,P
1608091535.5,286046993.5,P
1608091555.3,286046996.4,N
1608091575.1,286047003.8,N
1608091595.9,286047001.0,N
1608091615.7,286046998.1,N
1608091635.6,286046999.3,N
1608091655.4,286046999.2,N
1608091675.2,286046997.3,N
1608091695.1,286046997.3,N
1608091696.0,286046997.3,N
1608091715.8,286046997.7,N
1608091735.7,286046996.7,N
1608091755.5,286046995.4,N
1608091775.3,286046995.2,N
1608091795.2,286046997.5,N
1608091815.9,286046993.8,N
1608091835.7,286046998.0,N
1608091855.6,286046998.9,N
1608091875.4,286047000.8,N
1608091895.2,286046999.5,N
1608091915.1,286046997.4,N
1608091916.0,286046997.4,N
1608091935.8,286046997.3,N
1608091955.7,286046995.0,N
1608091975.5,286046998.4,N
1608091995.3,286047001.4,N
1608092015.2,286047004.9,N
1608092035.0,286047008.9,Y
1608092035.9,286047008.9,P
1608092055.8,286047006.4,N
1608092075.6,286047003.8,N
1608092095.4,286047005.3,N
1608092115.3,286047006.8,N
1608092135.1,286047006.7,N
1608092155.8,286047008.0,N
1608092175.7,286047008.1,N
1608092195.5,286047005.3,N
1608092215.3,286047002.6,N
1608092235.2,286047002.7,N
1608092255.0,286047005.0,N
1608092255.9,286047005.0,N
1608092275.8,286047001.7,N
1608092295.6,286046999.7,N
1608092315.4,286047002.6,N
1608092335.3,286047000.3,N
1608092355.1,286047002.8,N
1608092375.8,286047002.9,N
1608092395.7,286047004.0,N
1608092415.5,286047006.4,N
1608092435.4,286047008.7,Y
1608092455.2,286047007.5,P
1608092475.0,286047003.7,N
1608092475.9,286047003.7,N
1608092495.8,286047003.3,N
1608092515.6,286047003.7,N
1608092535.5,286047000.0,N
1608092555.3,286046997.8,N
1608092575.1,286046997.6,N
1608092595.9,286046997.7,N
1608092615.7,286046997.4,N
1608092635.5,286046996.6,N
1608092655.4,286046996.2,N
1608092675.2,286046994.6,N
1608092695.1,286046992.2,N
1608092696.0,286046992.2,N
1608092715.8,286046999.1,N
1608092735.6,286047002.3,N
1608092755.5,286046996.6,N
1608092775.3,286047002.5,N
1608092795.1,286047002.9,N
1608092815.9,286047002.6,N
1608092835.7,286046998.3,N
1608092855.6,286046997.2,N
1608092875.4,286046997.1,N
1608092895.2,286046995.0,N
1608092915.1,286046995.8,N
1608092916.0,286046995.8,N
1608092935.8,286046995.0,N
1608092955.7,286046996.6,N
1608092975.5,286046998.4,N
1608092995.3,286047011.9,Y
1608093015.2,286046998.1,P
1608093035.0,286046996.8,P
1608093035.9,286046996.8,P
1608093055.8,286046999.2,N
1608093075.6,286047003.0,Y
1608093095.4,286047004.8,P
1608093115.3,286047008.7,N
1608093135.1,286047008.6,N
1608093155.8,286047002.9,N
1608093175.7,286046999.7,N
1608093195.5,286047002.1,N
1608093215.4,286047006.0,N
1608093235.2,286047004.1,N
1608093255.0,286047005.7,N
1608093255.9,286047005.7,N
1608093275.8,286047007.5,N
1608093295.6,286047008.7,N
1608093315.5,286047010.8,Y
1608093335.3,286047006.4,P
1608093355.1,286047001.3,N
1608093375.9,286047000.1,N
1608093395.7,286047001.8,N
1608093415.5,286046998.7,N
1608093435.4,286046998.2,N
1608093455.2,286047000.7,N
1608093475.1,286046998.9,N
1608093476.0,286046998.9,N
1608093495.8,286047002.5,N
1608093515.6,286047000.8,N
1608093535.5,286046998.4,N
1608093555.3,286046997.9,N
1608093575.1,286046996.8,N
1608093595.9,286046995.5,N
1608093615.7,286046995.2,N
1608093635.6,286046997.7,N
1608093655.4,286047002.6,N
1608093675.2,286046999.2,N
1608093695.1,286046999.7,N
1608093696.0,286046999.7,N
1608093715.8,286047002.2,N
1608093735.6,286047007.1,N
1608093755.5,286047006.8,N
1608093775.3,286047002.9,N
1608093795.2,286047006.9,N
1608093815.9,286047002.8,N
1608093835.7,286047003.6,N
1608093855.6,286046999.8,N
1608093875.4,286047001.1,N
1608093895.2,286047000.4,N
1608093915.1,286047002.4,N
1608093916.0,286047002.4,N
1608093935.8,286047004.1,N
1608093955.7,286047005.5,N
1608093975.5,286047007.0,N
1608093995.3,286047005.3,N
1608094015.2,286047006.5,N
1608094035.9,286047006.7,N
1608094055.7,286047004.3,N
1608094075.6,286047005.5,N
1608094095.4,286047001.5,N
1608094115.2,286047002.8,N
1608094135.1,286047002.4,N
1608094136.0,286047002.4,N
1608094155.8,286047001.4,N
1608094175.7,286047002.6,N
1608094195.5,286047007.4,Y
1608094215.3,286046996.5,P
1608094235.2,286046998.2,N
1608094255.0,286046997.8,N
1608094255.9,286046997.8,N
1608094275.8,286046997.3,N
1608094295.6,286047002.0,N
1608094315.4,286047000.8,N
1608094335.3,286046999.3,N
1608094355.1,286046997.6,N
1608094375.8,286046993.5,Y
1608094395.7,286047002.8,P
1608094415.5,286047006.0,P
1608094435.4,286047005.8,N
1608094455.2,286047001.2,N
1608094475.0,286046999.9,N
1608094475.9,286046999.9,N
1608094495.8,286046998.1,N
1608094515.6,286046998.9,N
1608094535.4,286046994.9,N
1608094555.3,286046998.6,N
1608094575.1,286047003.8,N
1608094595.9,286047001.4,N
1608094615.7,286046998.1,N
1608094635.5,286046997.7,N
1608094655.4,286046996.0,N
1608094675.2,286046995.1,N
1608094695.0,286046995.6,N
1608094695.9,286046995.6,N
1608094715.8,286047000.7,N
1608094735.6,286047000.7,N
1608094755.5,286046997.4,N
1608094775.3,286046995.4,N
1608094795.1,286046997.6,N
